TimeCDT,TemperatureF,Dew PointF,Humidity,Sea Level PressureIn,VisibilityMPH,Wind Direction,Wind SpeedMPH,Gust SpeedMPH,PrecipitationIn,Events,Conditions,WindDirDegrees,DateUTC
12:15 AM,41.0,28.4,61,30.13,10.0,Calm,Calm,-,N/A,,Clear,0,2013-04-05 05:15:00
12:35 AM,39.2,28.4,65,30.13,10.0,Calm,Calm,-,N/A,,Clear,0,2013-04-05 05:35:00
12:55 AM,39.2,30.2,70,30.13,10.0,NNE,9.2,-,N/A,,Clear,30,2013-04-05 05:55:00
1:15 AM,39.2,30.2,70,30.13,10.0,NNE,10.4,-,N/A,,Clear,30,2013-04-05 06:15:00
1:35 AM,39.2,30.2,70,30.14,10.0,NNE,9.2,-,N/A,,Clear,30,2013-04-05 06:35:00
1:55 AM,37.4,30.2,75,30.14,10.0,NNE,8.1,-,N/A,,Clear,30,2013-04-05 06:55:00
2:15 AM,37.4,30.2,75,30.14,10.0,NNE,10.4,-,N/A,,Clear,30,2013-04-05 07:15:00
2:35 AM,37.4,30.2,75,30.14,10.0,NNE,8.1,-,N/A,,Clear,30,2013-04-05 07:35:00
2:55 AM,37.4,30.2,75,30.14,10.0,NE,9.2,-,N/A,,Clear,40,2013-04-05 07:55:00
3:15 AM,35.6,28.4,75,30.15,10.0,NNE,6.9,-,N/A,,Clear,20,2013-04-05 08:15:00
3:35 AM,35.6,28.4,75,30.16,10.0,NNE,6.9,-,N/A,,Clear,30,2013-04-05 08:35:00
3:55 AM,33.8,28.4,81,30.16,10.0,Calm,Calm,-,N/A,,Clear,0,2013-04-05 08:55:00
4:15 AM,32.0,26.6,80,30.15,10.0,Calm,Calm,-,N/A,,Clear,0,2013-04-05 09:15:00
4:35 AM,32.0,26.6,80,30.15,10.0,Calm,Calm,-,N/A,,Clear,0,2013-04-05 09:35:00
4:55 AM,32.0,26.6,80,30.16,10.0,Calm,Calm,-,N/A,,Clear,0,2013-04-05 09:55:00
5:15 AM,32.0,26.6,80,30.16,10.0,Calm,Calm,-,N/A,,Clear,0,2013-04-05 10:15:00
5:35 AM,32.0,26.6,80,30.17,10.0,NE,8.1,-,N/A,,Clear,40,2013-04-05 10:35:00
5:55 AM,30.2,26.6,86,30.17,10.0,Calm,Calm,-,N/A,,Clear,0,2013-04-05 10:55:00
6:15 AM,30.2,26.6,86,30.17,10.0,Calm,Calm,-,N/A,,Clear,0,2013-04-05 11:15:00
6:35 AM,30.2,26.6,86,30.18,10.0,NNE,8.1,-,N/A,,Clear,30,2013-04-05 11:35:00
6:55 AM,30.2,26.6,86,30.17,10.0,NE,6.9,-,N/A,,Clear,50,2013-04-05 11:55:00
7:15 AM,30.2,24.8,80,30.17,7.0,Calm,Calm,-,N/A,,Clear,0,2013-04-05 12:15:00
7:35 AM,32.0,26.6,80,30.18,10.0,Calm,Calm,-,N/A,,Clear,0,2013-04-05 12:35:00
7:55 AM,35.6,28.4,75,30.18,7.0,ENE,3.5,-,N/A,,Clear,60,2013-04-05 12:55:00
8:15 AM,35.6,28.4,75,30.18,10.0,ENE,9.2,-,N/A,,Scattered Clouds,70,2013-04-05 13:15:00
8:35 AM,37.4,28.4,70,30.19,10.0,East,6.9,-,N/A,,Clear,80,2013-04-05 13:35:00
8:55 AM,37.4,28.4,70,30.19,10.0,East,6.9,-,N/A,,Clear,80,2013-04-05 13:55:00
9:15 AM,39.2,28.4,65,30.17,10.0,East,13.8,-,N/A,,Clear,100,2013-04-05 14:15:00
9:35 AM,42.8,28.4,57,30.16,10.0,East,15.0,-,N/A,,Clear,100,2013-04-05 14:35:00
9:55 AM,44.6,28.4,53,30.16,10.0,ESE,12.7,-,N/A,,Clear,110,2013-04-05 14:55:00
10:15 AM,46.4,26.6,46,30.17,10.0,ESE,11.5,-,N/A,,Mostly Cloudy,120,2013-04-05 15:15:00
10:35 AM,46.4,26.6,46,30.17,7.0,SE,10.4,-,N/A,,Mostly Cloudy,130,2013-04-05 15:35:00
10:55 AM,48.2,26.6,43,30.17,10.0,SE,13.8,-,N/A,,Mostly Cloudy,130,2013-04-05 15:55:00
11:15 AM,50.0,26.6,40,30.15,10.0,SE,15.0,-,N/A,,Scattered Clouds,130,2013-04-05 16:15:00
11:35 AM,51.8,24.8,35,30.14,10.0,SE,11.5,19.6,N/A,,Clear,140,2013-04-05 16:35:00
11:55 AM,51.8,24.8,35,30.15,10.0,SSE,11.5,-,N/A,,Clear,150,2013-04-05 16:55:00
12:15 PM,53.6,24.8,33,30.13,10.0,SE,12.7,19.6,N/A,,Clear,130,2013-04-05 17:15:00
12:35 PM,55.4,23.0,29,30.13,10.0,SSE,9.2,16.1,N/A,,Clear,160,2013-04-05 17:35:00
12:55 PM,55.4,21.2,26,30.12,10.0,SSE,11.5,-,N/A,,Clear,160,2013-04-05 17:55:00
1:15 PM,57.2,24.8,29,30.10,10.0,SSE,12.7,17.3,N/A,,Clear,160,2013-04-05 18:15:00
1:35 PM,59.0,26.6,29,30.09,10.0,SSE,13.8,17.3,N/A,,Clear,150,2013-04-05 18:35:00
1:55 PM,57.2,26.6,31,30.08,10.0,SE,15.0,-,N/A,,Clear,140,2013-04-05 18:55:00
2:15 PM,57.2,26.6,31,30.06,10.0,SE,13.8,17.3,N/A,,Clear,130,2013-04-05 19:15:00
2:35 PM,59.0,28.4,31,30.05,10.0,SSE,12.7,-,N/A,,Clear,150,2013-04-05 19:35:00
3:35 PM,62.6,30.2,30,30.00,10.0,South,16.1,21.9,N/A,,Clear,170,2013-04-05 20:35:00
3:55 PM,62.6,30.2,30,29.99,10.0,SSE,16.1,20.7,N/A,,Clear,160,2013-04-05 20:55:00
3:56 PM,62.6,30.2,30,29.99,10.0,SSE,13.8,20.7,N/A,,Clear,160,2013-04-05 20:56:00
4:15 PM,62.6,30.2,30,29.98,10.0,SSE,16.1,24.2,N/A,,Clear,150,2013-04-05 21:15:00
5:18 PM,62.6,32.0,32,29.94,10.0,SSE,15.0,-,N/A,,Clear,150,2013-04-05 22:18:00
5:35 PM,62.6,33.8,34,29.93,10.0,SSE,17.3,20.7,N/A,,Clear,150,2013-04-05 22:35:00
5:37 PM,62.6,33.8,34,29.93,10.0,SE,16.1,20.7,N/A,,Clear,140,2013-04-05 22:37:00
5:55 PM,62.6,33.8,34,29.92,7.0,SSE,16.1,-,N/A,,Clear,160,2013-04-05 22:55:00
5:56 PM,62.6,33.8,34,29.92,7.0,SSE,15.0,-,N/A,,Clear,150,2013-04-05 22:56:00
6:37 PM,62.6,35.6,37,29.91,10.0,SSE,13.8,-,N/A,,Clear,150,2013-04-05 23:37:00
6:55 PM,60.8,35.6,39,29.90,10.0,SSE,12.7,-,N/A,,Clear,150,2013-04-05 23:55:00
7:15 PM,60.8,35.6,39,29.90,10.0,SSE,11.5,-,N/A,,Clear,150,2013-04-06 00:15:00
7:17 PM,60.8,35.6,39,29.90,10.0,SSE,11.5,-,N/A,,Clear,150,2013-04-06 00:17:00
7:35 PM,59.0,35.6,42,29.89,10.0,SE,10.4,-,N/A,,Clear,140,2013-04-06 00:35:00
7:55 PM,57.2,37.4,48,29.89,10.0,SE,10.4,-,N/A,,Clear,140,2013-04-06 00:55:00
8:15 PM,57.2,37.4,48,29.88,10.0,SE,9.2,-,N/A,,Clear,140,2013-04-06 01:15:00
8:35 PM,57.2,37.4,48,29.87,10.0,SE,10.4,-,N/A,,Clear,140,2013-04-06 01:35:00
8:55 PM,57.2,37.4,48,29.87,10.0,SSE,11.5,-,N/A,,Clear,150,2013-04-06 01:55:00
9:15 PM,57.2,37.4,48,29.87,10.0,SSE,9.2,-,N/A,,Clear,150,2013-04-06 02:15:00
9:55 PM,55.4,37.4,51,29.87,10.0,SSE,10.4,-,N/A,,Clear,150,2013-04-06 02:55:00
10:15 PM,55.4,37.4,51,29.86,10.0,SSE,13.8,-,N/A,,Clear,150,2013-04-06 03:15:00
10:35 PM,57.2,37.4,48,29.85,10.0,SSE,15.0,21.9,N/A,,Clear,160,2013-04-06 03:35:00
10:55 PM,57.2,37.4,48,29.84,10.0,SSE,16.1,-,N/A,,Clear,160,2013-04-06 03:55:00
11:15 PM,57.2,37.4,48,29.82,10.0,SSE,16.1,21.9,N/A,,Clear,160,2013-04-06 04:15:00
11:35 PM,57.2,37.4,48,29.82,10.0,SSE,16.1,20.7,N/A,,Clear,160,2013-04-06 04:35:00
11:55 PM,57.2,37.4,48,29.81,10.0,SSE,15.0,21.9,N/A,,Clear,160,2013-04-06 04:55:00